| time (UTC) | temp F | wind direction | speed MPH | gust MPH | rain 1hr in | rain 24hr in | rain mn in | humidity % | barometer mb |
| 20260503184155 | 63 | 271 | 9.0 | 17.0 | 0.00 | 0.00 | 0.00 | 38 | 977.0 |
| 20260503183655 | 63 | 211 | 2.0 | 21.0 | 0.00 | 0.00 | 0.00 | 41 | 978.0 |
| 20260503183158 | 63 | 244 | 8.0 | 21.0 | 0.00 | 0.00 | 0.00 | 39 | 978.0 |
| 20260503182655 | 62 | 230 | 10.0 | 15.0 | 0.00 | 0.00 | 0.00 | 37 | 977.0 |
| 20260503182156 | 61 | 226 | 6.0 | 22.0 | 0.00 | 0.00 | 0.00 | 38 | 978.0 |
| 20260503181655 | 61 | 219 | 7.0 | 16.0 | 0.00 | 0.00 | 0.00 | 38 | 978.0 |
| 20260503181155 | 62 | 270 | 11.0 | 17.0 | 0.00 | 0.00 | 0.00 | 35 | 978.0 |
| 20260503180656 | 63 | 282 | 20.0 | 24.0 | 0.00 | 0.00 | 0.00 | 37 | 978.0 |
| 20260503180155 | 62 | 274 | 11.0 | 13.0 | 0.00 | 0.00 | 0.00 | 40 | 978.0 |
| 20260503175655 | 61 | 214 | 11.0 | 14.0 | 0.00 | 0.00 | 0.00 | 39 | 978.0 |
| 20260503175155 | 62 | 273 | 8.0 | 13.0 | 0.00 | 0.00 | 0.00 | 39 | 978.0 |
| 20260503174655 | 60 | 286 | 7.0 | 21.0 | 0.00 | 0.00 | 0.00 | 38 | 978.0 |
| 20260503174155 | 62 | 232 | 11.0 | 19.0 | 0.00 | 0.00 | 0.00 | 36 | 978.0 |
| 20260503173656 | 62 | 226 | 8.0 | 18.0 | 0.00 | 0.00 | 0.00 | 35 | 978.0 |
| 20260503173155 | 61 | 250 | 9.0 | 13.0 | 0.00 | 0.00 | 0.00 | 39 | 978.0 |
| 20260503172655 | 60 | 224 | 6.0 | 15.0 | 0.00 | 0.00 | 0.00 | 38 | 978.0 |
| 20260503172156 | 61 | 256 | 8.0 | 11.0 | 0.00 | 0.00 | 0.00 | 37 | 978.0 |
| 20260503171655 | 61 | 262 | 7.0 | 14.0 | 0.00 | 0.00 | 0.00 | 40 | 978.0 |
| 20260503171156 | 59 | 246 | 4.0 | 8.0 | 0.00 | 0.00 | 0.00 | 45 | 978.0 |
| 20260503170655 | 58 | 266 | 5.0 | 14.0 | 0.00 | 0.00 | 0.00 | 44 | 979.0 |
| 20260503170156 | 58 | 217 | 12.0 | 16.0 | 0.00 | 0.00 | 0.00 | 42 | 979.0 |
| 20260503160201 | 55 | 281 | 4.0 | 9.0 | 0.00 | 0.00 | 0.00 | 46 | 979.0 |
| 20260503150655 | 56 | 266 | 8.0 | 13.0 | 0.00 | 0.00 | 0.00 | 41 | 980.0 |
| 20260503150155 | 57 | 279 | 9.0 | 22.0 | 0.00 | 0.00 | 0.00 | 41 | 980.0 |
| 20260503140155 | 55 | 225 | 6.0 | 10.0 | 0.00 | 0.00 | 0.00 | 45 | 980.0 |
| 20260503131155 | 50 | 265 | 5.0 | 8.0 | 0.00 | 0.00 | 0.00 | 50 | 980.0 |
| 20260503130655 | 50 | 284 | 5.0 | 10.0 | 0.00 | 0.00 | 0.00 | 54 | 980.0 |
| 20260503130155 | 49 | 246 | 6.0 | 9.0 | 0.00 | 0.00 | 0.00 | 52 | 980.0 |
| 20260503120155 | 45 | 269 | 3.0 | 6.0 | 0.00 | 0.00 | 0.00 | 55 | 980.0 |
| 20260503110655 | 38 | 170 | 0.0 | 1.0 | 0.00 | 0.00 | 0.00 | 66 | 980.0 |
| 20260503110155 | 38 | 151 | 1.0 | 2.0 | 0.00 | 0.00 | 0.00 | 66 | 980.0 |
| 20260503100156 | 38 | 157 | 1.0 | 3.0 | 0.00 | 0.00 | 0.00 | 63 | 980.0 |
| 20260503090155 | 38 | 171 | 0.0 | 1.0 | 0.00 | 0.00 | 0.00 | 60 | 981.0 |
| 20260503081155 | 36 | 186 | 0.0 | 0.0 | 0.00 | 0.00 | 0.00 | 63 | 981.0 |
| 20260503080655 | 37 | 198 | 1.0 | 2.0 | 0.00 | 0.00 | 0.00 | 63 | 981.0 |
| 20260503080155 | 37 | 186 | 0.0 | 0.0 | 0.00 | 0.00 | 0.00 | 63 | 981.0 |
| 20260503072657 | 37 | 179 | 0.0 | 2.0 | 0.00 | 0.00 | 0.00 | 62 | 981.0 |
| 20260503072155 | 37 | 183 | 0.0 | 0.0 | 0.00 | 0.00 | 0.00 | 62 | 981.0 |
| 20260503071656 | 37 | 224 | 1.0 | 2.0 | 0.00 | 0.00 | 0.00 | 63 | 981.0 |
| 20260503071155 | 37 | 203 | 0.0 | 1.0 | 0.00 | 0.00 | 0.00 | 63 | 981.0 |
| 20260503070655 | 37 | 197 | 1.0 | 2.0 | 0.00 | 0.00 | 0.00 | 62 | 981.0 |
| 20260503070155 | 37 | 195 | 0.0 | 1.0 | 0.00 | 0.00 | 0.00 | 63 | 981.0 |
| 20260503060155 | 32 | 180 | 0.0 | 0.0 | 0.00 | 0.00 | 0.00 | 76 | 982.0 |
| 20260503054655 | 32 | 180 | 0.0 | 0.0 | 0.00 | 0.00 | 0.00 | 77 | 982.0 |
| 20260503054155 | 32 | 180 | 0.0 | 0.0 | 0.00 | 0.00 | 0.00 | 77 | 982.0 |
| 20260503053655 | 32 | 180 | 0.0 | 0.0 | 0.00 | 0.00 | 0.00 | 78 | 982.0 |
| 20260503053159 | 32 | 180 | 0.0 | 0.0 | 0.00 | 0.00 | 0.00 | 78 | 982.0 |
| 20260503052655 | 32 | 180 | 0.0 | 0.0 | 0.00 | 0.00 | 0.00 | 79 | 982.0 |
| 20260503052156 | 32 | 180 | 0.0 | 0.0 | 0.00 | 0.00 | 0.00 | 79 | 982.0 |
| 20260503051655 | 32 | 180 | 0.0 | 0.0 | 0.00 | 0.00 | 0.00 | 79 | 982.0 |
| 20260503051156 | 32 | 180 | 0.0 | 0.0 | 0.00 | 0.00 | 0.00 | 79 | 982.0 |
| 20260503050656 | 32 | 180 | 0.0 | 0.0 | 0.00 | 0.00 | 0.00 | 79 | 982.0 |
| 20260503050156 | 32 | 180 | 0.0 | 0.0 | 0.00 | 0.00 | 0.00 | 78 | 982.0 |
| 20260503045655 | 32 | 180 | 0.0 | 0.0 | 0.00 | 0.00 | 0.00 | 79 | 982.0 |
| 20260503045155 | 32 | 180 | 0.0 | 0.0 | 0.00 | 0.00 | 0.00 | 80 | 982.0 |
| 20260503044656 | 32 | 180 | 0.0 | 0.0 | 0.00 | 0.00 | 0.00 | 80 | 982.0 |
| 20260503044155 | 32 | 180 | 0.0 | 0.0 | 0.00 | 0.00 | 0.00 | 80 | 982.0 |
| 20260503043655 | 32 | 180 | 0.0 | 0.0 | 0.00 | 0.00 | 0.00 | 80 | 982.0 |
| 20260503043155 | 32 | 180 | 0.0 | 0.0 | 0.00 | 0.00 | 0.00 | 81 | 982.0 |
| 20260503042655 | 32 | 180 | 0.0 | 0.0 | 0.00 | 0.00 | 0.00 | 81 | 982.0 |
| 20260503042155 | 32 | 180 | 0.0 | 0.0 | 0.00 | 0.00 | 0.00 | 81 | 982.0 |
| 20260503041655 | 32 | 180 | 0.0 | 0.0 | 0.00 | 0.00 | 0.00 | 80 | 982.0 |
| 20260503041155 | 33 | 180 | 0.0 | 0.0 | 0.00 | 0.00 | 0.00 | 81 | 982.0 |
| 20260503040656 | 33 | 180 | 0.0 | 0.0 | 0.00 | 0.00 | 0.00 | 81 | 982.0 |
| 20260503040155 | 33 | 180 | 0.0 | 0.0 | 0.00 | 0.00 | 0.00 | 81 | 982.0 |
| 20260503035655 | 33 | 180 | 0.0 | 0.0 | 0.00 | 0.00 | 0.00 | 82 | 982.0 |
| 20260503035155 | 33 | 180 | 0.0 | 0.0 | 0.00 | 0.00 | 0.00 | 83 | 982.0 |
| 20260503034655 | 33 | 180 | 0.0 | 0.0 | 0.00 | 0.00 | 0.00 | 84 | 982.0 |
| 20260503034155 | 33 | 180 | 0.0 | 0.0 | 0.00 | 0.00 | 0.00 | 84 | 982.0 |
| 20260503033655 | 33 | 180 | 0.0 | 0.0 | 0.00 | 0.00 | 0.00 | 84 | 982.0 |
| 20260503033155 | 33 | 180 | 0.0 | 0.0 | 0.00 | 0.00 | 0.00 | 85 | 982.0 |
| 20260503032655 | 33 | 180 | 0.0 | 0.0 | 0.00 | 0.00 | 0.00 | 85 | 982.0 |
| 20260503032157 | 33 | 180 | 0.0 | 0.0 | 0.00 | 0.00 | 0.00 | 85 | 982.0 |
| 20260503031655 | 33 | 180 | 0.0 | 0.0 | 0.00 | 0.00 | 0.00 | 84 | 982.0 |
| 20260503031155 | 33 | 180 | 0.0 | 0.0 | 0.00 | 0.00 | 0.00 | 83 | 982.0 |
| 20260503030655 | 33 | 180 | 0.0 | 0.0 | 0.00 | 0.00 | 0.00 | 83 | 982.0 |
| 20260503030155 | 34 | 180 | 0.0 | 0.0 | 0.00 | 0.00 | 0.00 | 83 | 982.0 |
| 20260503025656 | 34 | 180 | 0.0 | 0.0 | 0.00 | 0.00 | 0.00 | 84 | 982.0 |
| 20260503025155 | 34 | 180 | 0.0 | 0.0 | 0.00 | 0.00 | 0.00 | 84 | 982.0 |
| 20260503024655 | 34 | 180 | 0.0 | 0.0 | 0.00 | 0.00 | 0.00 | 83 | 982.0 |
| 20260503024156 | 34 | 180 | 0.0 | 0.0 | 0.00 | 0.00 | 0.00 | 82 | 982.0 |
| 20260503023655 | 34 | 180 | 0.0 | 0.0 | 0.00 | 0.00 | 0.00 | 82 | 982.0 |
| 20260503023156 | 34 | 180 | 0.0 | 0.0 | 0.00 | 0.00 | 0.00 | 82 | 982.0 |
| 20260503022655 | 34 | 180 | 0.0 | 0.0 | 0.00 | 0.00 | 0.00 | 81 | 982.0 |
| 20260503022155 | 35 | 180 | 0.0 | 0.0 | 0.00 | 0.00 | 0.00 | 79 | 982.0 |
| 20260503021655 | 35 | 180 | 0.0 | 0.0 | 0.00 | 0.00 | 0.00 | 79 | 982.0 |
| 20260503021156 | 35 | 180 | 0.0 | 0.0 | 0.00 | 0.00 | 0.00 | 79 | 983.0 |
| 20260503020656 | 35 | 180 | 0.0 | 0.0 | 0.00 | 0.00 | 0.00 | 78 | 982.0 |
| 20260503020155 | 35 | 180 | 0.0 | 1.0 | 0.00 | 0.00 | 0.00 | 78 | 982.0 |
| 20260503015655 | 35 | 180 | 0.0 | 0.0 | 0.00 | 0.00 | 0.00 | 76 | 982.0 |
| 20260503015155 | 35 | 180 | 0.0 | 0.0 | 0.00 | 0.00 | 0.00 | 74 | 982.0 |
| 20260503014655 | 36 | 180 | 0.0 | 0.0 | 0.00 | 0.00 | 0.00 | 72 | 982.0 |
| 20260503014155 | 37 | 180 | 0.0 | 0.0 | 0.00 | 0.00 | 0.00 | 71 | 982.0 |
| 20260503013655 | 37 | 180 | 0.0 | 0.0 | 0.00 | 0.00 | 0.00 | 69 | 982.0 |
| 20260503013156 | 38 | 180 | 0.0 | 0.0 | 0.00 | 0.00 | 0.00 | 68 | 982.0 |
| 20260503012655 | 38 | 180 | 0.0 | 0.0 | 0.00 | 0.00 | 0.00 | 67 | 982.0 |
| 20260503012155 | 39 | 181 | 0.0 | 0.0 | 0.00 | 0.00 | 0.00 | 66 | 982.0 |
| 20260503011655 | 40 | 181 | 0.0 | 1.0 | 0.00 | 0.00 | 0.00 | 65 | 982.0 |
| 20260503011155 | 40 | 180 | 0.0 | 0.0 | 0.00 | 0.00 | 0.00 | 64 | 982.0 |
| 20260503010655 | 40 | 180 | 0.0 | 0.0 | 0.00 | 0.00 | 0.00 | 64 | 982.0 |
| 20260503010155 | 40 | 180 | 0.0 | 0.0 | 0.00 | 0.00 | 0.00 | 61 | 982.0 |
| 20260503005656 | 41 | 180 | 0.0 | 0.0 | 0.00 | 0.00 | 0.00 | 60 | 982.0 |
| 20260503005155 | 42 | 180 | 0.0 | 0.0 | 0.00 | 0.00 | 0.00 | 57 | 982.0 |
| 20260503004656 | 42 | 180 | 0.0 | 0.0 | 0.00 | 0.00 | 0.00 | 54 | 982.0 |
| 20260503004155 | 43 | 185 | 0.0 | 0.0 | 0.00 | 0.00 | 0.00 | 53 | 982.0 |
| 20260503003655 | 44 | 200 | 0.0 | 1.0 | 0.00 | 0.00 | 0.00 | 52 | 982.0 |
| 20260503003155 | 44 | 200 | 0.0 | 0.0 | 0.00 | 0.00 | 0.00 | 52 | 982.0 |
| 20260503002655 | 45 | 206 | 1.0 | 1.0 | 0.00 | 0.00 | 0.00 | 51 | 982.0 |
| 20260503002155 | 45 | 211 | 1.0 | 2.0 | 0.00 | 0.00 | 0.00 | 51 | 982.0 |
| 20260503001656 | 45 | 211 | 0.0 | 0.0 | 0.00 | 0.00 | 0.00 | 51 | 982.0 |
| 20260503001155 | 46 | 212 | 0.0 | 0.0 | 0.00 | 0.00 | 0.00 | 50 | 982.0 |
| 20260503000655 | 46 | 266 | 1.0 | 1.0 | 0.00 | 0.00 | 0.00 | 49 | 982.0 |
| 20260503000155 | 47 | 270 | 2.0 | 2.0 | 0.00 | 0.00 | 0.00 | 47 | 982.0 |
| 20260502235655 | 47 | 262 | 1.0 | 6.0 | 0.00 | 0.00 | 0.00 | 46 | 982.0 |
| 20260502235154 | 48 | 274 | 3.0 | 4.0 | 0.00 | 0.00 | 0.00 | 46 | 982.0 |
| 20260502234655 | 47 | 275 | 3.0 | 6.0 | 0.00 | 0.00 | 0.00 | 45 | 982.0 |
| 20260502234155 | 47 | 283 | 2.0 | 6.0 | 0.00 | 0.00 | 0.00 | 46 | 982.0 |
| 20260502233655 | 47 | 273 | 2.0 | 3.0 | 0.00 | 0.00 | 0.00 | 47 | 982.0 |
| 20260502233155 | 47 | 259 | 2.0 | 2.0 | 0.00 | 0.00 | 0.00 | 47 | 982.0 |
| 20260502232657 | 47 | 271 | 0.0 | 4.0 | 0.00 | 0.00 | 0.00 | 47 | 982.0 |
| 20260502232155 | 47 | 294 | 1.0 | 6.0 | 0.00 | 0.00 | 0.00 | 46 | 982.0 |
| 20260502231655 | 47 | 292 | 4.0 | 7.0 | 0.00 | 0.00 | 0.00 | 44 | 982.0 |
| 20260502231155 | 47 | 251 | 4.0 | 7.0 | 0.00 | 0.00 | 0.00 | 44 | 982.0 |
| 20260502230655 | 47 | 265 | 2.0 | 4.0 | 0.00 | 0.00 | 0.00 | 44 | 982.0 |
| 20260502230156 | 47 | 274 | 3.0 | 6.0 | 0.00 | 0.00 | 0.00 | 43 | 982.0 |
| 20260502225655 | 48 | 302 | 3.0 | 6.0 | 0.00 | 0.00 | 0.00 | 44 | 982.0 |
| 20260502225155 | 48 | 289 | 4.0 | 7.0 | 0.00 | 0.00 | 0.00 | 44 | 982.0 |
| 20260502224655 | 48 | 267 | 3.0 | 7.0 | 0.00 | 0.00 | 0.00 | 42 | 982.0 |
| 20260502224155 | 48 | 321 | 2.0 | 2.0 | 0.00 | 0.00 | 0.00 | 45 | 982.0 |
| 20260502223655 | 48 | 344 | 4.0 | 4.0 | 0.00 | 0.00 | 0.00 | 43 | 982.0 |
| 20260502223156 | 48 | 248 | 3.0 | 4.0 | 0.00 | 0.00 | 0.00 | 46 | 982.0 |
| 20260502222655 | 48 | 273 | 2.0 | 3.0 | 0.00 | 0.00 | 0.00 | 44 | 982.0 |
| 20260502222155 | 48 | 340 | 2.0 | 4.0 | 0.00 | 0.00 | 0.00 | 43 | 982.0 |
| 20260502221655 | 48 | 298 | 3.0 | 4.0 | 0.00 | 0.00 | 0.00 | 43 | 982.0 |
| 20260502221155 | 48 | 330 | 3.0 | 3.0 | 0.00 | 0.00 | 0.00 | 42 | 982.0 |
| 20260502220655 | 49 | 309 | 3.0 | 11.0 | 0.00 | 0.00 | 0.00 | 40 | 982.0 |
| 20260502220155 | 48 | 337 | 5.0 | 7.0 | 0.00 | 0.00 | 0.00 | 41 | 982.0 |
| 20260502215655 | 48 | 321 | 2.0 | 3.0 | 0.00 | 0.00 | 0.00 | 45 | 982.0 |
| 20260502215155 | 48 | 272 | 4.0 | 8.0 | 0.00 | 0.00 | 0.00 | 44 | 982.0 |
| 20260502214655 | 49 | 298 | 3.0 | 7.0 | 0.00 | 0.00 | 0.00 | 42 | 982.0 |
| 20260502214156 | 49 | 275 | 3.0 | 6.0 | 0.00 | 0.00 | 0.00 | 41 | 982.0 |
| 20260502213655 | 49 | 14 | 3.0 | 6.0 | 0.00 | 0.00 | 0.00 | 44 | 982.0 |
| 20260502213155 | 48 | 303 | 2.0 | 3.0 | 0.00 | 0.00 | 0.00 | 44 | 982.0 |
| 20260502212655 | 48 | 246 | 2.0 | 7.0 | 0.00 | 0.00 | 0.00 | 43 | 982.0 |
| 20260502212155 | 48 | 298 | 3.0 | 7.0 | 0.00 | 0.00 | 0.00 | 45 | 982.0 |
| 20260502211655 | 48 | 2 | 4.0 | 7.0 | 0.00 | 0.00 | 0.00 | 42 | 982.0 |
| 20260502211155 | 47 | 313 | 2.0 | 7.0 | 0.00 | 0.00 | 0.00 | 43 | 982.0 |
| 20260502210655 | 47 | 356 | 5.0 | 8.0 | 0.00 | 0.00 | 0.00 | 43 | 982.0 |
| 20260502210155 | 47 | 200 | 2.0 | 7.0 | 0.00 | 0.00 | 0.00 | 43 | 982.0 |
| 20260502205657 | 47 | 347 | 5.0 | 6.0 | 0.00 | 0.00 | 0.00 | 42 | 982.0 |
| 20260502205155 | 48 | 278 | 5.0 | 9.0 | 0.00 | 0.00 | 0.00 | 41 | 982.0 |
| 20260502204655 | 48 | 273 | 4.0 | 8.0 | 0.00 | 0.00 | 0.00 | 43 | 982.0 |
| 20260502204155 | 49 | 285 | 4.0 | 9.0 | 0.00 | 0.00 | 0.00 | 40 | 982.0 |
| 20260502203655 | 48 | 355 | 4.0 | 7.0 | 0.00 | 0.00 | 0.00 | 43 | 982.0 |
| 20260502203155 | 48 | 308 | 2.0 | 4.0 | 0.00 | 0.00 | 0.00 | 40 | 982.0 |
| 20260502202655 | 48 | 355 | 6.0 | 9.0 | 0.00 | 0.00 | 0.00 | 40 | 983.0 |
| 20260502202155 | 48 | 275 | 2.0 | 6.0 | 0.00 | 0.00 | 0.00 | 42 | 983.0 |
| 20260502201655 | 48 | 309 | 3.0 | 7.0 | 0.00 | 0.00 | 0.00 | 43 | 982.0 |
| 20260502201155 | 48 | 285 | 6.0 | 9.0 | 0.00 | 0.00 | 0.00 | 43 | 983.0 |
| 20260502200655 | 48 | 300 | 6.0 | 9.0 | 0.00 | 0.00 | 0.00 | 40 | 983.0 |
| 20260502200155 | 48 | 298 | 5.0 | 6.0 | 0.00 | 0.00 | 0.00 | 40 | 983.0 |
| 20260502195655 | 48 | 321 | 3.0 | 4.0 | 0.00 | 0.00 | 0.00 | 42 | 983.0 |
| 20260502195156 | 48 | 254 | 4.0 | 7.0 | 0.00 | 0.00 | 0.00 | 43 | 983.0 |
| 20260502194655 | 48 | 260 | 6.0 | 9.0 | 0.00 | 0.00 | 0.00 | 41 | 983.0 |
| 20260502194157 | 48 | 256 | 2.0 | 9.0 | 0.00 | 0.00 | 0.00 | 42 | 983.0 |
| 20260502193655 | 48 | 291 | 2.0 | 9.0 | 0.00 | 0.00 | 0.00 | 43 | 983.0 |
| 20260502193155 | 48 | 271 | 6.0 | 7.0 | 0.00 | 0.00 | 0.00 | 42 | 983.0 |
| 20260502192655 | 48 | 333 | 5.0 | 6.0 | 0.00 | 0.00 | 0.00 | 41 | 983.0 |
| 20260502192155 | 47 | 318 | 3.0 | 6.0 | 0.00 | 0.00 | 0.00 | 44 | 983.0 |
| 20260502191655 | 48 | 299 | 2.0 | 6.0 | 0.00 | 0.00 | 0.00 | 41 | 983.0 |
| 20260502191156 | 48 | 263 | 4.0 | 8.0 | 0.00 | 0.00 | 0.00 | 41 | 983.0 |
| 20260502190655 | 48 | 358 | 5.0 | 8.0 | 0.00 | 0.00 | 0.00 | 40 | 984.0 |
| 20260502190156 | 48 | 268 | 4.0 | 8.0 | 0.00 | 0.00 | 0.00 | 40 | 983.0 |
| 20260502185655 | 48 | 300 | 3.0 | 4.0 | 0.00 | 0.00 | 0.00 | 42 | 983.0 |
| 20260502185155 | 48 | 302 | 2.0 | 8.0 | 0.00 | 0.00 | 0.00 | 41 | 983.0 |
| 20260502184655 | 48 | 284 | 6.0 | 8.0 | 0.00 | 0.00 | 0.00 | 40 | 983.0 |